H1 CPF 2 NER 2025 8 15 9 227 01 glonass129 H2 1106402 9129 37868 2025 8 15 0 0 0 2025 8 18 23 45 0 900 1 1 0 0 0 1 H9 10 0 60902 0.00000 0 10406873.016 -22769565.933 4780197.003 10 0 60902 900.00000 0 10438844.068 -23192255.228 1583168.793 10 0 60902 1800.00000 0 10280214.143 -23253889.642 -1644704.732 10 0 60902 2700.00000 0 9982254.071 -22931612.400 -4840509.485 10 0 60902 3600.00000 0 9600532.133 -22215470.594 -7941899.531 10 0 60902 4500.00000 0 9192338.215 -21108974.102 -10888330.874 10 0 60902 5400.00000 0 8814041.420 -19629101.213 -13622262.388 10 0 60902 6300.00000 0 8518495.238 -17805748.950 -16090298.446 10 0 60902 7200.00000 0 8352602.590 -15680650.208 -18244248.977 10 0 60902 8100.00000 0 8355146.129 -13305802.878 -20042084.589 10 0 60902 9000.00000 0 8554977.668 -10741477.218 -21448766.855 10 0 60902 9900.00000 0 8969644.855 -8053885.850 -22436936.718 10 0 60902 10800.00000 0 9604514.121 -5312615.060 -22987447.326 10 0 60902 11700.00000 0 10452427.310 -2587925.961 -23089731.078 10 0 60902 12600.00000 0 11493906.241 51960.723 -22741994.380 10 0 60902 13500.00000 0 12697895.858 2543482.374 -21951237.256 10 0 60902 14400.00000 0 14023013.595 4830145.524 -20733098.700 10 0 60902 15300.00000 0 15419251.050 6864630.304 -19111532.112 10 0 60902 16200.00000 0 16830055.035 8610501.971 -17118318.595 10 0 60902 17100.00000 0 18194699.291 10043460.149 -14792428.975 10 0 60902 18000.00000 0 19450846.186 11152076.246 -12179248.300 10 0 60902 18900.00000 0 20537190.133 11937991.284 -9329679.060 10 0 60902 19800.00000 0 21396071.527 12415569.095 -6299141.545 10 0 60902 20700.00000 0 21975951.644 12611022.606 -3146491.550 10 0 60902 21600.00000 0 22233645.298 12561052.807 67123.126 10 0 60902 22500.00000 0 22136218.567 12311059.999 3279445.007 10 0 60902 23400.00000 0 21662473.214 11913004.341 6428305.369 10 0 60902 24300.00000 0 20803956.867 11423006.765 9452816.038 10 0 60902 25200.00000 0 19565457.806 10898791.518 12294532.470 10 0 60902 26100.00000 0 17964964.522 10397077.621 14898566.706 10 0 60902 27000.00000 0 16033092.122 9971028.054 17214630.237 10 0 60902 27900.00000 0 13811999.339 9667862.672 19197988.234 10 0 60902 28800.00000 0 11353840.467 9526733.782 20810308.400 10 0 60902 29700.00000 0 8718815.201 9576952.338 22020389.634 10 0 60902 30600.00000 0 5972895.438 9836638.299 22804757.822 10 0 60902 31500.00000 0 3185321.054 10311851.409 23148118.172 10 0 60902 32400.00000 0 425965.964 10996239.192 23043655.857 10 0 60902 33300.00000 0 -2237318.897 11871217.974 22493179.021 10 0 60902 34200.00000 0 -4741277.780 12906681.096 21507100.671 10 0 60902 35100.00000 0 -7029632.685 14062206.907 20104258.500 10 0 60902 36000.00000 0 -9055178.646 15288718.462 18311574.338 10 0 60902 36900.00000 0 -10781505.220 16530527.906 16163557.722 10 0 60902 37800.00000 0 -12184272.432 17727682.025 13701660.943 10 0 60902 38700.00000 0 -13251987.367 18818512.208 10973495.863 10 0 60902 39600.00000 0 -13986247.880 19742282.569 8031925.824 10 0 60902 40500.00000 0 -14401442.027 20441824.881 4934048.801 10 0 60902 41400.00000 0 -14523914.716 20866048.468 1740090.719 10 0 60902 42300.00000 0 -14390635.770 20972217.607 -1487769.690 10 0 60902 43200.00000 0 -14047425.217 20727898.031 -4686621.113 10 0 60902 44100.00000 0 -13546810.952 20112487.712 -7794060.091 10 0 60902 45000.00000 0 -12945610.227 19118264.480 -10749425.811 10 0 60902 45900.00000 0 -12302338.759 17750903.667 -13495003.298 10 0 60902 46800.00000 0 -11674559.033 16029441.703 -15977169.483 10 0 60902 47700.00000 0 -11116282.228 13985685.594 -18147457.815 10 0 60902 48600.00000 0 -10675535.938 11663092.190 -19963518.940 10 0 60902 49500.00000 0 -10392202.587 9115164.050 -21389957.445 10 0 60902 50400.00000 0 -10296221.527 6403429.580 -22399027.427 10 0 60902 51300.00000 0 -10406231.832 3595092.816 -22971173.084 10 0 60902 52200.00000 0 -10728713.509 760452.142 -23095403.915 10 0 60902 53100.00000 0 -11257663.126 -2029803.216 -22769497.853 10 0 60902 54000.00000 0 -11974816.753 -4707305.342 -22000029.332 10 0 60902 54900.00000 0 -12850409.546 -7208615.060 -20802222.972 10 0 60902 55800.00000 0 -13844438.463 -9477616.166 -19199637.116 10 0 60902 56700.00000 0 -14908373.242 -11467597.632 -17223684.794 10 0 60902 57600.00000 0 -15987242.052 -13142938.565 -14913002.858 10 0 60902 58500.00000 0 -17022002.594 -14480327.829 -12312682.907 10 0 60902 59400.00000 0 -17952097.845 -15469470.122 -9473380.096 10 0 60902 60300.00000 0 -18718088.277 -16113252.035 -6450318.162 10 0 60902 61200.00000 0 -19264249.662 -16427364.245 -3302210.755 10 0 60902 62100.00000 0 -19541027.500 -16439398.716 -90120.498 10 0 60902 63000.00000 0 -19507245.599 -16187461.423 3123721.925 10 0 60902 63900.00000 0 -19131976.975 -15718360.981 6277115.901 10 0 60902 64800.00000 0 -18395999.671 -15085450.735 9309083.531 10 0 60902 65700.00000 0 -17292777.489 -14346215.720 12161034.600 10 0 60902 66600.00000 0 -15828925.422 -13559705.883 14777882.485 10 0 60902 67500.00000 0 -14024140.787 -12783922.789 17109090.886 10 0 60902 68400.00000 0 -11910602.837 -12073268.362 19109632.836 10 0 60902 69300.00000 0 -9531865.218 -11476161.369 20740845.068 10 0 60902 70200.00000 0 -6941286.079 -11032920.068 21971162.918 10 0 60902 71100.00000 0 -4200059.130 -10773998.536 22776722.896 10 0 60902 72000.00000 0 -1374925.111 -10718649.621 23141822.290 10 0 60902 72900.00000 0 1464344.105 -10874070.251 23059227.425 10 0 60902 73800.00000 0 4247587.188 -11235065.219 22530324.507 10 0 60902 74700.00000 0 6906913.822 -11784244.609 21565109.473 10 0 60902 75600.00000 0 9379275.875 -12492748.227 20182015.736 10 0 60902 76500.00000 0 11608844.148 -13321468.790 18407581.396 10 0 60902 77400.00000 0 13549092.906 -14222724.860 16275960.268 10 0 60902 78300.00000 0 15164505.654 -15142315.464 13828283.930 10 0 60902 79200.00000 0 16431830.641 -16021871.929 11111884.961 10 0 60902 80100.00000 0 17340832.667 -16801409.158 8179394.522 10 0 60902 81000.00000 0 17894508.457 -17421969.351 5087730.338 10 0 60902 81900.00000 0 18108755.240 -17828246.216 1896993.840 10 0 60902 82800.00000 0 18011505.274 -17971077.640 -1330702.232 10 0 60902 83700.00000 0 17641361.982 -17809699.482 -4532452.490 10 0 60902 84600.00000 0 17045795.026 -17313662.695 -7645798.999 10 0 60902 85500.00000 0 16278970.919 -16464329.920 -10609967.014 10 0 60903 0.00000 0 15399312.007 -15255885.590 -13367070.123 10 0 60903 900.00000 0 14466888.115 -13695813.622 -15863260.680 10 0 60903 1800.00000 0 13540754.333 -11804822.122 -18049797.454 10 0 60903 2700.00000 0 12676347.965 -9616214.670 -19884012.859 10 0 60903 3600.00000 0 11923057.869 -7174735.333 -21330155.847 10 0 60903 4500.00000 0 11322070.017 -4534935.200 -22360094.642 10 0 60903 5400.00000 0 10904581.474 -1759129.405 -22953865.056 10 0 60903 6300.00000 0 10690458.633 1084969.150 -23100053.837 10 0 60903 7200.00000 0 10687396.129 3926839.500 -22796010.188 10 0 60903 8100.00000 0 10890611.034 6695856.861 -22047882.305 10 0 60903 9000.00000 0 11283083.870 9323998.052 -20870479.429 10 0 60903 9900.00000 0 11836334.492 11748435.216 -19286963.486 10 0 60903 10800.00000 0 12511698.202 13913910.214 -17328377.744 10 0 60903 11700.00000 0 13262046.335 15774791.844 -15033023.077 10 0 60903 12600.00000 0 14033876.981 17296731.794 -12445695.300 10 0 60903 13500.00000 0 14769686.270 18457852.496 -9616799.600 10 0 60903 14400.00000 0 15410519.195 19249419.987 -6601360.246 10 0 60903 15300.00000 0 15898591.928 19675976.519 -3457945.609 10 0 60903 16200.00000 0 16179875.057 19754930.328 -247529.853 10 0 60903 17100.00000 0 16206529.372 19515622.501 2967686.459 10 0 60903 18000.00000 0 15939092.397 18997912.376 6125474.094 10 0 60903 18900.00000 0 15348324.705 18250342.590 9164768.524 10 0 60903 19800.00000 0 14416639.457 17327961.859 12026836.723 10 0 60903 20700.00000 0 13139056.068 16289897.154 14656395.939 10 0 60903 21600.00000 0 11523638.596 15196776.809 17002664.290 10 0 60903 22500.00000 0 9591400.605 14108111.633 19020324.494 10 0 60903 23400.00000 0 7375679.921 13079742.416 20670383.779 10 0 60903 24300.00000 0 4921008.235 12161459.126 21920914.979 10 0 60903 25200.00000 0 2281520.745 11394889.867 22747665.893 10 0 60903 26100.00000 0 -481030.343 10811746.597 23134526.121 10 0 60903 27000.00000 0 -3299578.681 10432500.070 23073842.903 10 0 60903 27900.00000 0 -6104270.383 10265539.137 22566579.791 10 0 60903 28800.00000 0 -8825112.318 10306849.952 21622314.415 10 0 60903 29700.00000 0 -11394634.769 10540229.486 20259074.156 10 0 60903 30600.00000 0 -13750459.901 10938025.975 18503011.144 10 0 60903 31500.00000 0 -15837670.617 11462377.138 16387920.799 10 0 60903 32400.00000 0 -17610881.782 12066896.151 13954610.970 10 0 60903 33300.00000 0 -19035927.326 12698736.358 11250131.702 10 0 60903 34200.00000 0 -20091091.899 13300949.155 8326878.617 10 0 60903 35100.00000 0 -20767834.278 13815036.424 5241585.826 10 0 60903 36000.00000 0 -21070970.655 14183589.711 2054227.009 10 0 60903 36900.00000 0 -21018308.621 14352903.758 -1173154.182 10 0 60903 37800.00000 0 -20639746.025 14275452.191 -4377661.167 10 0 60903 38700.00000 0 -19975871.966 13912118.311 -7496784.186 10 0 60903 39600.00000 0 -19076128.840 13234083.845 -10469636.946 10 0 60903 40500.00000 0 -17996613.589 12224292.892 -13238164.154 10 0 60903 41400.00000 0 -16797612.220 10878426.343 -15748294.355 10 0 60903 42300.00000 0 -15540973.364 9205343.221 -17951013.544 10 0 60903 43200.00000 0 -14287433.717 7226968.385 -19803336.908 10 0 60903 44100.00000 0 -13094010.194 4977630.049 -21269158.376 10 0 60903 45000.00000 0 -12011570.517 2502874.365 -22319960.526 10 0 60903 45900.00000 0 -11082685.959 -142193.215 -22935370.638 10 0 60903 46800.00000 0 -10339857.325 -2894969.840 -23103552.225 10 0 60903 47700.00000 0 -9804188.901 -5687733.417 -22821424.962 10 0 60903 48600.00000 0 -9484565.368 -8450236.815 -22094709.702 10 0 60903 49500.00000 0 -9377364.993 -11112409.154 -20937798.927 10 0 60903 50400.00000 0 -9466719.189 -13607051.102 -19373456.512 10 0 60903 51300.00000 0 -9725305.325 -15872411.848 -17432354.101 10 0 60903 52200.00000 0 -10115636.997 -17854540.977 -15152454.542 10 0 60903 53100.00000 0 -10591795.123 -19509318.331 -12578255.690 10 0 60903 54000.00000 0 -11101524.901 -20804078.955 -9759910.504 10 0 60903 54900.00000 0 -11588608.593 -21718767.541 -6752241.483 10 0 60903 55800.00000 0 -11995413.017 -22246576.665 -3613669.423 10 0 60903 56700.00000 0 -12265503.754 -22394044.870 -405077.741 10 0 60903 57600.00000 0 -12346215.869 -22180613.151 2811365.392 10 0 60903 58500.00000 0 -12191073.233 -21637660.778 5973404.388 10 0 60903 59400.00000 0 -11761955.367 -20807062.837 9019890.350 10 0 60903 60300.00000 0 -11030921.558 -19739331.237 11891949.671 10 0 60903 61200.00000 0 -9981616.534 -18491417.729 14534105.652 10 0 60903 62100.00000 0 -8610199.401 -17124270.924 16895332.891 10 0 60903 63000.00000 0 -6925757.176 -15700248.845 18930025.688 10 0 60903 63900.00000 0 -4950185.386 -14280494.032 20598863.416 10 0 60903 64800.00000 0 -2717539.766 -12922379.347 21869557.770 10 0 60903 65700.00000 0 -272884.510 -11677129.441 22717468.862 10 0 60903 66600.00000 0 2329317.185 -10587715.593 23126079.273 10 0 60903 67500.00000 0 5027206.010 -9687110.443 23087317.466 10 0 60903 68400.00000 0 7753842.657 -8996974.639 22601724.279 10 0 60903 69300.00000 0 10439743.927 -8526829.980 21678458.640 10 0 60903 70200.00000 0 13015536.331 -8273753.986 20335141.169 10 0 60903 71100.00000 0 15414619.292 -8222609.627 18597536.973 10 0 60903 72000.00000 0 17575728.873 -8346801.997 16499081.692 10 0 60903 72900.00000 0 19445296.250 -8609531.866 14080257.732 10 0 60903 73800.00000 0 20979502.706 -8965495.095 11387830.533 10 0 60903 74700.00000 0 22145944.663 -9362957.833 8473957.758 10 0 60903 75600.00000 0 22924837.850 -9746120.916 5395187.157 10 0 60903 76500.00000 0 23309708.501 -10057673.952 2211361.609 10 0 60903 77400.00000 0 23307540.781 -10241430.565 -1015547.559 10 0 60903 78300.00000 0 22938372.657 -10244932.023 -4222655.912 10 0 60903 79200.00000 0 22234355.973 -10021907.002 -7347405.165 10 0 60903 80100.00000 0 21238319.732 -9534480.784 -10328800.621 10 0 60903 81000.00000 0 20001897.165 -8755037.521 -13108620.768 10 0 60903 81900.00000 0 18583296.321 -7667653.885 -15632573.407 10 0 60903 82800.00000 0 17044809.477 -6269040.798 -17851373.728 10 0 60903 83700.00000 0 15450168.082 -4568951.282 -19721721.536 10 0 60903 84600.00000 0 13861856.549 -2590035.487 -21207157.221 10 0 60903 85500.00000 0 12338499.807 -367148.040 -22278778.812 10 0 60904 0.00000 0 10932436.098 2053863.401 -22915805.755 10 0 60904 900.00000 0 9687577.254 4617838.699 -23105978.788 10 0 60904 1800.00000 0 8637648.446 7262380.705 -22845787.949 10 0 60904 2700.00000 0 7804878.306 9920242.298 -22140526.347 10 0 60904 3600.00000 0 7199195.062 12521921.326 -21004168.932 10 0 60904 4500.00000 0 6817959.790 14998355.688 -19459080.393 10 0 60904 5400.00000 0 6646245.706 17283605.613 -17535559.270 10 0 60904 6300.00000 0 6657649.119 19317411.415 -15271228.548 10 0 60904 7200.00000 0 6815595.212 21047520.677 -12710285.943 10 0 60904 8100.00000 0 7075081.131 22431688.994 -9902629.661 10 0 60904 9000.00000 0 7384780.782 23439272.489 -6902877.609 10 0 60904 9900.00000 0 7689420.915 24052347.693 -3769299.898 10 0 60904 10800.00000 0 7932327.221 24266314.363 -562685.902 10 0 60904 11700.00000 0 8058032.551 24089958.495 2654832.007 10 0 60904 12600.00000 0 8014837.358 23544975.183 5820975.301 10 0 60904 13500.00000 0 7757214.958 22664973.328 8874514.018 10 0 60904 14400.00000 0 7247961.121 21494005.307 11756437.086 10 0 60904 15300.00000 0 6459998.493 20084684.017 14411076.703 10 0 60904 16200.00000 0 5377760.839 18495966.261 16787166.472 10 0 60904 17100.00000 0 3998099.551 16790694.615 18838814.449 10 0 60904 18000.00000 0 2330674.464 15032999.390 20526373.945 10 0 60904 18900.00000 0 397812.078 13285667.609 21817196.915 10 0 60904 19800.00000 0 -1766164.188 11607586.895 22686256.758 10 0 60904 20700.00000 0 -4116105.690 10051368.994 23116629.553 10 0 60904 21600.00000 0 -6597665.896 8661250.282 23099825.020 10 0 60904 22500.00000 0 -9149318.583 7471355.394 22635960.791 10 0 60904 23400.00000 0 -11704685.992 6504395.591 21733776.046 10 0 60904 24300.00000 0 -14195083.147 5770855.933 20410483.035 10 0 60904 25200.00000 0 -16552175.177 5268705.595 18691457.677 10 0 60904 26100.00000 0 -18710639.050 4983644.368 16609773.164 10 0 60904 27000.00000 0 -20610720.170 4889876.313 14205583.349 10 0 60904 27900.00000 0 -22200577.644 4951379.525 11525365.632 10 0 60904 28800.00000 0 -23438319.823 5123619.992 8621036.077 10 0 60904 29700.00000 0 -24293643.823 5355638.386 5548952.346 10 0 60904 30600.00000 0 -24749008.662 5592422.203 2368822.854 10 0 60904 31500.00000 0 -24800290.758 5777462.811 -857456.940 10 0 60904 32400.00000 0 -24456892.281 5855388.261 -4067018.064 10 0 60904 33300.00000 0 -23741296.088 5774558.705 -7197256.764 10 0 60904 34200.00000 0 -22688084.762 5489512.167 -10187072.697 10 0 60904 35100.00000 0 -21342464.533 4963154.410 -12978080.551 10 0 60904 36000.00000 0 -19758356.419 4168597.275 -15515769.430 10 0 60904 36900.00000 0 -17996135.839 3090564.969 -17750585.330 10 0 60904 37800.00000 0 -16120117.242 1726306.380 -19638913.821 10 0 60904 38700.00000 0 -14195891.236 85972.955 -21143942.376 10 0 60904 39600.00000 0 -12287627.979 -1807555.130 -22236384.592 10 0 60904 40500.00000 0 -10455461.627 -3919387.929 -22895051.753 10 0 60904 41400.00000 0 -8753066.731 -6203859.725 -23107260.731 10 0 60904 42300.00000 0 -7225528.796 -8606225.934 -22869070.809 10 0 60904 43200.00000 0 -5907597.979 -11064751.118 -22185345.730 10 0 60904 44100.00000 0 -4822398.131 -13513099.921 -21069641.012 10 0 60904 45000.00000 0 -3980643.568 -15882930.123 -19543920.049 10 0 60904 45900.00000 0 -3380394.038 -18106578.898 -17638106.004 10 0 60904 46800.00000 0 -3007355.397 -20119729.848 -15389479.642 10 0 60904 47700.00000 0 -2835710.415 -21863949.649 -12841936.140 10 0 60904 48600.00000 0 -2829441.803 -23288989.089 -10045116.570 10 0 60904 49500.00000 0 -2944089.162 -24354753.612 -7053431.908 10 0 60904 50400.00000 0 -3128863.558 -25032862.652 -3924999.338 10 0 60904 51300.00000 0 -3329028.993 -25307734.564 -720512.020 10 0 60904 52200.00000 0 -3488449.289 -25177153.917 2497935.558 10 0 60904 53100.00000 0 -3552192.633 -24652299.552 5668043.939 10 0 60904 54000.00000 0 -3469084.124 -23757234.157 8728504.057 10 0 60904 54900.00000 0 -3194099.383 -22527878.240 11620169.287 10 0 60904 55800.00000 0 -2690499.322 -21010512.411 14287182.569 10 0 60904 56700.00000 0 -1931617.202 -19259870.936 16678038.254 10 0 60904 57600.00000 0 -902223.667 -17336905.844 18746559.751 10 0 60904 58500.00000 0 400587.123 -15306313.990 20452775.725 10 0 60904 59400.00000 0 1967027.547 -13233928.655 21763679.551 10 0 60904 60300.00000 0 3774779.071 -11184082.490 22653858.806 10 0 60904 61200.00000 0 5789682.026 -9217049.598 23105983.665 10 0 60904 62100.00000 0 7966925.996 -7386671.177 23111145.388 10 0 60904 63000.00000 0 10252693.938 -5738261.810 22669038.399 10 0 60904 63900.00000 0 12586194.500 -4306882.272 21787981.825 10 0 60904 64800.00000 0 14902001.021 -3116050.051 20484778.968 10 0 60904 65700.00000 0 17132602.604 -2176941.207 18784415.709 10 0 60904 66600.00000 0 19211063.340 -1488117.378 16719601.661 10 0 60904 67500.00000 0 21073680.455 -1035790.235 14330160.699 10 0 60904 68400.00000 0 22662531.195 -794613.499 11662280.456 10 0 60904 69300.00000 0 23927801.940 -728970.538 8767633.337 10 0 60904 70200.00000 0 24829801.071 -794704.412 5702384.540 10 0 60904 71100.00000 0 25340569.651 -941218.103 2526105.323 10 0 60904 72000.00000 0 25445020.193 -1113856.327 -699387.648 10 0 60904 72900.00000 0 25141553.431 -1256467.565 -3911243.955 10 0 60904 73800.00000 0 24442124.994 -1314036.542 -7046817.514 10 0 60904 74700.00000 0 23371757.443 -1235273.660 -10044905.398 10 0 60904 75600.00000 0 21967517.028 -975049.227 -12846961.379 10 0 60904 76500.00000 0 20276997.781 -496566.609 -15398258.484 10 0 60904 77400.00000 0 18356377.021 226820.450 -17648975.827 10 0 60904 78300.00000 0 16268124.954 1210225.775 -19555186.728 10 0 60904 79200.00000 0 14078465.978 2456344.546 -21079727.418 10 0 60904 80100.00000 0 11854699.930 3955101.883 -22192928.421 10 0 60904 81000.00000 0 9662497.206 5683852.027 -22873193.886 10 0 60904 81900.00000 0 7563282.383 7608120.089 -23107417.694 10 0 60904 82800.00000 0 5611816.739 9682854.982 -22891228.719 10 0 60904 83700.00000 0 3854080.900 11854140.339 -22229061.433 10 0 60904 84600.00000 0 2325545.545 14061290.859 -21134051.639 10 0 60904 85500.00000 0 1049901.087 16239245.304 -19627760.773 10 0 60905 0.00000 0 38297.416 18321154.992 -17739735.760 10 0 60905 900.00000 0 -710877.661 20241060.042 -15506913.350 10 0 60905 1800.00000 0 -1211673.754 21936538.460 -12972884.500 10 0 60905 2700.00000 0 -1489725.598 23351221.254 -10187030.936 10 0 60905 3600.00000 0 -1580910.604 24437066.333 -7203554.137 10 0 60905 4500.00000 0 -1529576.017 25156298.372 -4080415.483 10 0 60905 5400.00000 0 -1386412.413 25482934.859 -878208.799 10 0 60905 6300.00000 0 -1206064.720 25403836.273 2341012.611 10 0 60905 7200.00000 0 -1044582.306 24919238.313 5514931.744 10 0 60905 8100.00000 0 -956815.890 24042745.708 8582163.816 10 0 60905 9000.00000 0 -993870.614 22800789.343 11483429.928 10 0 60905 9900.00000 0 -1200721.811 21231570.453 14162686.874 10 0 60905 10800.00000 0 -1614092.851 19383536.464 16568192.634 10 0 60905 11700.00000 0 -2260683.315 17313451.897 18653488.568 10 0 60905 12600.00000 0 -3155821.183 15084143.989 20378280.966 10 0 60905 13500.00000 0 -4302595.274 12762015.506 21709206.545 10 0 60905 14400.00000 0 -5691504.585 10414426.403 22620468.591 10 0 60905 15300.00000 0 -7300640.210 8107051.100 23094332.461 10 0 60905 16200.00000 0 -9096393.932 5901319.000 23121471.573 10 0 60905 17100.00000 0 -11034666.241 3852042.558 22701157.211 10 0 60905 18000.00000 0 -13062526.120 2005329.826 21841287.964 10 0 60905 18900.00000 0 -15120256.375 396867.072 20558257.097 10 0 60905 19800.00000 0 -17143702.108 -949357.634 18876658.754 10 0 60905 20700.00000 0 -19066826.930 -2021836.603 16828836.690 10 0 60905 21600.00000 0 -20824372.147 -2821797.311 14454282.003 10 0 60905 22500.00000 0 -22354508.999 -3362918.158 11798889.297 10 0 60905 23400.00000 0 -23601373.228 -3670515.982 8914083.730 10 0 60905 24300.00000 0 -24517375.193 -3780238.378 5855834.223 10 0 60905 25200.00000 0 -25065187.191 -3736315.070 2683570.975 10 0 60905 26100.00000 0 -25219322.452 -3589441.746 -540972.029 10 0 60905 27000.00000 0 -24967237.042 -3394386.048 -3754966.702 10 0 60905 27900.00000 0 -24309905.821 -3207417.993 -6895728.219 10 0 60905 28800.00000 0 -23261845.966 -3083675.217 -9901954.406 10 0 60905 29700.00000 0 -21850585.336 -3074576.858 -12714941.152 10 0 60905 30600.00000 0 -20115596.901 -3225398.164 -15279748.060 10 0 60905 31500.00000 0 -18106743.756 -3573111.217 -17546289.574 10 0 60905 32400.00000 0 -15882300.379 -4144585.722 -19470328.451 10 0 60905 33300.00000 0 -13506634.216 -4955228.202 -21014350.784 10 0 60905 34200.00000 0 -11047646.166 -6008118.786 -22148304.487 10 0 60905 35100.00000 0 -8574078.711 -7293683.185 -22850186.400 10 0 60905 36000.00000 0 -6152805.723 -8789914.159 -23106466.615 10 0 60905 36900.00000 0 -3846218.298 -10463133.106 -22912342.268 10 0 60905 37800.00000 0 -1709816.306 -12269259.144 -22271816.748 10 0 60905 38700.00000 0 209894.055 -14155531.565 -21197603.990 10 0 60905 39600.00000 0 1877109.869 -16062612.238 -19710861.044 10 0 60905 40500.00000 0 3267978.695 -17926978.808 -17840755.621 10 0 60905 41400.00000 0 4371333.653 -19683507.484 -15623878.439 10 0 60905 42300.00000 0 5188888.563 -21268136.617 -13103513.179 10 0 60905 43200.00000 0 5734888.226 -22620499.323 -10328779.479 10 0 60905 44100.00000 0 6035231.750 -23686415.171 -7353666.636 10 0 60905 45000.00000 0 6126108.808 -24420137.269 -4235977.608 10 0 60905 45900.00000 0 6052208.812 -24786261.781 -1036204.376 10 0 60905 46800.00000 0 5864580.431 -24761221.328 2183643.322 10 0 60905 47700.00000 0 5618232.987 -24334301.305 5361233.194 10 0 60905 48600.00000 0 5369581.448 -23508138.194 8435106.834 10 0 60905 49500.00000 0 5173842.667 -22298680.374 11345855.014 10 0 60905 50400.00000 0 5082492.009 -20734614.135 14037250.139 10 0 60905 51300.00000 0 5140886.461 -18856279.401 16457315.375 10 0 60905 52200.00000 0 5386153.140 -16714120.333 18559311.359 10 0 60905 53100.00000 0 5845430.877 -14366734.684 20302623.066 10 0 60905 54000.00000 0 6534537.950 -11878601.815 21653531.343 10 0 60905 54900.00000 0 7457121.591 -9317581.989 22585855.668 10 0 60905 55800.00000 0 8604325.291 -6752288.708 23081456.780 10 0 60905 56700.00000 0 9954988.934 -4249440.812 23130590.167 10 0 60905 57600.00000 0 11476375.181 -1871301.947 22732103.640 10 0 60905 58500.00000 0 13125394.124 326688.285 21893474.682 10 0 60905 59400.00000 0 14850277.770 2297994.726 20630685.745 10 0 60905 60300.00000 0 16592637.268 4006693.126 18967938.283 10 0 60905 61200.00000 0 18289819.579 5428732.000 16937209.045 10 0 60905 62100.00000 0 19877467.262 6552697.063 14577655.010 10 0 60905 63000.00000 0 21292175.795 7380045.584 11934876.212 10 0 60905 63900.00000 0 22474137.788 7924799.847 9060048.774 10 0 60905 64800.00000 0 23369662.889 8212711.429 6008943.315 10 0 60905 65700.00000 0 23933466.501 8279930.518 2840846.704 10 0 60905 66600.00000 0 24130629.154 8171235.692 -382592.247 10 0 60905 67500.00000 0 23938141.719 7937898.823 -3598570.423 10 0 60905 68400.00000 0 23345968.736 7635275.966 -6744366.975 10 0 60905 69300.00000 0 22357582.470 7320227.371 -9758583.194 10 0 60905 70200.00000 0 20989942.938 7048477.734 -12582359.673 10 0 60905 71100.00000 0 19272922.994 6872030.728 -15160545.013 10 0 60905 72000.00000 0 17248201.686 6836749.846 -17442791.178 10 0 60905 72900.00000 0 14967672.082 6980210.418 -19384552.314 10 0 60905 73800.00000 0 12491430.814 7329915.962 -20947966.099 10 0 60905 74700.00000 0 9885434.603 7901956.053 -22102599.338 10 0 60905 75600.00000 0 7218923.175 8700163.641 -22826042.850 10 0 60905 76500.00000 0 4561717.626 9715807.983 -23104344.001 10 0 60905 77400.00000 0 1981508.350 10927836.109 -22932268.980 10 0 60905 78300.00000 0 -458753.596 12303652.098 -22313390.595 10 0 60905 79200.00000 0 -2703252.723 13800400.442 -21260001.040 10 0 60905 80100.00000 0 -4705393.557 15366698.302 -19792852.726 10 0 60905 81000.00000 0 -6429487.725 16944742.627 -17940733.667 10 0 60905 81900.00000 0 -7851975.331 18472702.463 -15739887.117 10 0 60905 82800.00000 0 -8962132.251 19887295.082 -13233288.156 10 0 60905 83700.00000 0 -9762236.845 21126437.233 -10469792.480 10 0 60905 84600.00000 0 -10267192.408 22131860.124 -7503175.015 10 0 60905 85500.00000 0 -10503624.371 22851578.701 -4391077.827 99